Location: Klickitat County Star Party
(45.8642°N, 120.6771°W)
Time: 20:04:23
(UTC-07:00)

NO-84 - Visible Passes

Search period start: 22 May 2019 00:00
Search period end: 01 June 2019 00:00
Orbit: 334 x 520 km, 55.0° (Epoch: 15 May)

Date Brightness Start Highest point End Pass type
(mag) Time Alt. Az. Time Alt. Az. Time Alt. Az.
28 May ? 04:03:16 10° SSE 04:05:27 15° SE 04:07:41 10° E visible
30 May ? 04:08:31 13° SSW 04:11:36 38° SE 04:15:15 10° ENE visible
31 May ? 03:25:01 18° SSE 03:26:39 25° SE 03:29:50 10° ENE visible
